GFSSE_sfc_30mbdewp_057.txt.gz
Dewpoint
68 68 71 72 72 72 72 73 73 74 73 73 73 72 71 71 73 72 71 71 69 69 70 70 72 71 72 72 72 72 72 73 72 72 72 72 71 71 70 69 69 68 71
66 68 72 72 72 72 72 72 73 73 74 73 72 71 71 73 72 71 72 71 70 69 71 70 69 71 71 71 70 70 72 72 72 72 71 71 71 71 70 71 70 70 71
62 68 71 73 72 72 72 72 72 73 72 72 72 72 73 73 71 71 71 71 70 71 69 69 70 70 71 71 71 71 71 72 72 71 69 67 69 71 70 71 71 71 71
61 62 66 74 73 73 74 73 72 72 72 72 72 73 73 72 71 70 70 71 70 70 70 70 69 70 71 71 71 72 72 72 71 69 68 67 66 71 71 71 71 70 71
58 62 71 73 73 73 73 73 73 73 73 73 73 72 72 72 71 71 70 70 71 70 70 70 69 69 70 70 71 71 71 70 70 68 67 69 66 70 70 71 70 70 70
58 63 72 73 73 73 73 73 73 72 73 73 72 72 71 71 71 71 71 70 70 70 70 70 69 69 69 70 70 70 70 70 68 68 67 67 67 71 71 71 70 71 70
59 65 69 73 73 73 73 73 72 73 72 72 72 72 72 71 71 71 71 71 70 70 70 69 69 69 69 69 70 69 69 69 68 68 68 67 69 71 71 70 70 70 69
58 61 68 73 72 73 73 73 72 72 72 72 72 71 72 72 72 71 70 69 69 69 70 69 69 69 70 70 70 69 69 68 67 67 65 67 71 70 70 70 69 68 70
58 61 67 70 71 73 73 72 72 72 72 72 72 72 72 71 71 70 69 69 69 69 69 69 69 69 70 71 70 69 68 69 65 65 63 66 71 70 71 70 70 70 70
58 59 63 67 67 68 71 73 72 72 72 71 72 72 71 69 68 68 70 69 69 68 69 70 70 70 71 71 69 69 69 67 58 61 64 68 71 70 70 70 70 70 70
57 57 59 62 64 65 70 72 72 72 72 73 72 71 71 64 66 66 70 69 69 69 69 69 70 70 71 71 70 69 69 60 57 59 63 70 71 70 70 70 70 70 69
55 56 55 59 61 63 64 69 69 69 68 66 64 69 70 67 67 65 68 70 69 69 69 69 70 70 70 66 67 70 66 58 58 60 66 71 70 71 70 70 70 70 70
55 55 56 59 61 61 65 65 64 67 68 66 66 65 63 63 64 65 66 67 67 69 65 66 67 69 69 66 63 61 59 57 58 62 70 71 70 71 69 71 70 70 69
55 55 57 60 62 63 62 64 65 69 64 62 65 66 65 67 66 68 68 67 67 68 64 68 69 68 67 67 62 62 59 57 56 62 68 70 69 69 70 71 71 71 70
55 55 57 61 63 64 67 66 64 61 60 61 66 66 64 67 66 66 66 69 68 66 60 67 64 64 61 62 64 63 59 60 57 61 64 68 68 69 71 71 69 70 69
56 56 58 61 64 64 66 66 63 62 62 60 61 65 66 69 68 68 65 68 67 68 65 66 66 62 62 60 61 63 64 62 63 65 64 67 69 67 67 67 67 68 68
56 57 59 62 64 65 67 65 64 66 61 64 61 67 66 69 68 70 65 68 68 67 66 63 60 57 56 61 63 63 60 63 62 64 67 65 68 70 68 67 67 67 68
55 57 60 61 63 65 65 66 65 66 64 66 63 65 68 69 70 69 66 65 63 63 66 66 61 61 56 59 62 64 63 61 62 62 67 67 68 66 69 70 70 70 69
56 58 60 61 62 65 66 66 64 65 65 64 65 68 68 69 69 68 65 68 68 64 63 60 62 59 55 57 61 60 61 59 62 59 60 62 63 68 69 70 70 69 69
57 59 61 61 63 66 66 66 64 64 65 67 66 70 70 70 68 69 68 66 68 65 60 64 59 64 58 58 54 57 59 58 57 59 58 58 59 60 67 68 68 68 70
58 59 61 63 66 65 65 64 63 63 64 66 65 67 69 69 69 69 70 68 67 67 67 63 59 61 55 56 53 55 56 57 58 56 55 56 58 58 57 60 63 67 68
58 60 63 64 67 67 65 65 64 63 62 62 62 67 68 67 69 68 69 67 67 65 66 64 64 63 58 58 59 57 55 54 54 55 55 55 57 57 58 59 60 61 60
58 60 64 66 67 68 66 65 65 64 63 62 64 65 68 68 68 69 68 70 67 68 65 67 66 66 62 56 59 60 53 56 54 54 56 56 59 59 58 60 59 60 61
57 61 64 67 68 68 68 63 65 63 60 61 63 63 66 68 68 69 69 69 69 69 68 67 67 67 66 56 56 56 60 59 58 58 55 56 58 58 59 59 60 60 61
57 61 62 68 69 68 68 66 65 65 61 61 60 68 66 70 69 67 70 69 69 68 69 69 68 67 63 63 56 55 57 55 57 58 55 54 56 55 57 60 57 58 62
57 60 62 68 70 70 70 68 67 65 64 59 60 64 63 66 68 69 69 71 69 68 69 69 69 68 69 63 63 59 56 55 56 53 51 54 53 54 55 56 57 57 58

GFSSE_sfc_30mbdewp_060.txt.gz
Dewpoint
68 69 72 72 72 72 73 73 74 73 73 73 73 71 71 73 71 72 71 69 69 70 70 72 72 72 72 72 72 73 73 73 73 73 72 72 72 71 70 70 69 70 71
67 69 73 73 72 72 73 74 74 74 73 73 72 71 72 72 71 72 71 70 69 71 70 70 72 71 71 70 71 72 73 73 72 72 71 71 70 71 72 71 70 71 70
66 71 72 73 72 72 72 73 73 73 73 72 72 72 73 71 72 72 71 71 71 69 70 71 70 71 71 70 71 72 72 71 71 69 70 69 71 71 71 71 71 71 70
66 69 70 73 73 72 72 72 73 72 72 72 72 73 72 71 71 71 71 70 71 71 70 70 70 70 71 71 72 73 72 71 70 69 69 67 68 71 71 71 71 70 69
61 65 72 74 74 74 73 73 73 72 72 73 72 72 72 71 71 71 71 71 70 70 70 69 70 70 71 71 71 71 71 70 69 68 68 68 69 70 70 70 70 70 71
63 68 73 74 73 73 73 73 73 73 73 72 72 72 71 71 71 71 70 70 70 70 70 69 69 69 69 70 70 71 71 70 69 68 68 70 71 70 71 70 71 71 71
65 69 71 74 73 73 73 73 73 72 73 72 72 72 72 71 71 72 71 70 70 70 69 69 69 69 69 70 69 70 70 69 68 69 69 70 71 71 70 71 69 70 71
63 66 70 73 73 73 73 73 73 73 72 72 72 72 72 72 71 70 70 70 70 70 69 69 70 70 69 70 69 69 69 69 67 69 69 70 71 71 71 69 69 70 68
61 66 68 70 73 73 73 72 72 73 73 73 73 73 72 71 70 70 70 70 70 70 69 69 70 70 70 70 69 68 68 69 67 67 67 70 71 70 70 71 71 70 70
61 63 67 68 70 70 72 72 72 73 73 72 72 73 71 70 69 70 71 70 69 69 70 70 70 70 70 70 69 69 70 70 66 67 69 71 71 70 70 71 71 70 70
59 61 63 64 68 71 71 72 72 72 72 73 72 71 70 67 68 69 70 70 69 69 69 70 70 71 71 69 68 69 69 68 62 67 69 71 71 70 70 70 69 70 68
55 57 59 63 66 68 67 72 72 71 71 69 69 70 71 70 67 67 69 70 69 69 69 70 70 70 69 70 69 70 70 62 64 68 70 72 71 70 70 70 70 70 70
54 53 59 64 64 66 68 71 70 70 70 68 69 68 71 69 69 69 70 68 70 70 68 69 70 70 70 69 69 68 66 63 65 67 71 71 71 70 71 69 70 70 69
54 54 59 61 65 66 67 69 66 68 68 66 67 68 68 68 69 66 70 70 69 70 70 66 68 69 67 66 67 64 61 63 64 68 72 72 71 70 70 70 70 70 70
53 56 59 62 68 68 68 67 68 66 68 67 66 67 68 69 69 70 70 69 69 69 68 68 67 70 68 65 67 65 62 65 63 65 70 71 71 71 71 69 69 69 69
53 57 62 63 67 69 68 68 68 67 66 65 65 68 69 70 67 67 67 67 68 66 69 68 67 65 63 66 64 64 63 66 65 65 67 69 69 70 71 68 68 67 68
55 58 61 63 64 68 66 68 68 64 63 62 68 68 67 70 69 70 70 70 70 64 69 64 64 65 64 65 65 66 65 65 67 68 66 68 69 68 68 67 67 67 68
56 60 60 59 63 66 67 68 65 66 66 66 68 68 68 70 71 69 68 67 70 70 60 61 66 61 64 64 64 63 64 64 67 66 68 68 69 68 69 69 68 68 68
59 62 61 63 64 66 69 66 67 68 68 63 67 68 70 70 70 68 64 66 71 65 66 64 65 62 56 62 62 63 64 63 64 65 67 68 69 68 69 70 71 71 69
60 62 62 65 67 67 70 69 69 67 67 70 70 70 71 70 70 71 70 69 71 65 67 67 61 62 65 60 58 60 61 63 62 62 60 66 68 69 69 68 71 70 70
60 61 64 65 69 68 68 67 66 65 66 69 69 70 72 72 70 72 71 69 70 65 65 68 64 62 62 60 60 60 58 58 57 63 62 60 59 67 68 70 69 69 68
60 62 65 66 69 68 69 69 67 66 67 65 70 72 70 72 71 71 70 69 69 66 66 69 66 64 64 61 59 61 58 57 59 55 60 60 59 61 60 61 66 67 68
60 62 64 67 69 68 68 68 69 69 69 67 70 70 70 70 72 71 71 70 70 70 69 68 68 68 65 62 60 61 59 57 60 58 55 61 60 59 63 62 62 63 63
61 63 65 68 70 69 70 66 67 66 64 62 69 69 70 71 70 72 71 71 70 68 69 69 69 68 65 63 62 60 61 61 58 57 61 62 60 60 61 64 62 63 64
61 63 65 68 70 69 69 69 67 67 65 67 66 67 71 72 71 71 71 71 71 71 70 70 68 69 69 67 64 59 59 61 63 59 57 59 59 62 63 61 63 64 64
59 62 65 68 69 70 69 69 69 66 68 64 65 67 70 71 72 71 72 72 72 71 70 71 71 70 70 70 67 67 58 59 58 59 59 56 58 57 61 63 60 60 65

GFSSE_sfc_30mbdewp_063.txt.gz
Dewpoint
71 73 73 72 72 71 72 73 73 74 73 73 71 72 73 72 72 71 70 70 71 71 72 72 72 72 72 72 73 72 72 73 73 73 72 71 71 71 71 71 70 71 71
70 72 73 73 72 73 73 73 73 73 73 72 72 73 71 72 72 71 71 70 72 70 71 72 72 71 71 72 72 73 73 73 73 72 71 71 71 71 72 71 70 71 70
70 73 73 73 73 73 74 73 73 73 72 73 73 73 71 72 72 71 72 70 70 71 70 71 71 71 71 72 72 72 71 71 71 71 71 71 71 71 70 71 71 70 71
71 72 73 73 73 73 73 74 74 73 72 73 73 73 72 71 71 71 71 71 71 71 71 70 71 71 71 72 72 71 70 70 70 71 68 69 69 71 70 70 69 69 71
71 71 72 74 74 73 73 73 73 73 72 73 73 73 72 72 71 72 71 70 71 70 70 70 70 71 71 71 71 71 70 70 69 68 69 69 70 70 71 70 70 70 70
71 73 74 74 74 73 73 73 73 73 73 73 73 72 71 71 71 70 71 71 70 70 69 69 70 70 70 71 71 71 70 69 69 70 70 71 71 71 71 70 71 71 70
71 73 74 74 74 73 73 73 73 73 72 72 73 72 71 71 72 71 70 71 70 70 69 69 69 70 70 69 71 71 70 70 69 70 70 71 71 70 70 69 71 71 68
70 72 73 74 74 73 73 73 73 72 72 73 73 72 72 72 71 70 70 70 70 70 70 70 70 70 69 69 69 70 70 70 69 69 70 71 71 71 70 71 70 67 69
69 71 73 73 73 73 73 73 73 73 72 73 72 72 72 71 71 70 70 70 70 70 70 70 70 70 70 68 69 69 69 70 69 69 70 71 71 69 70 70 70 70 71
69 70 71 72 73 73 73 73 73 73 73 73 73 72 71 70 70 70 72 71 70 70 70 70 70 71 70 69 69 70 69 69 69 70 71 71 71 70 70 71 70 71 71
66 67 70 71 71 72 72 72 73 73 72 73 72 71 70 69 70 70 71 70 70 70 70 70 71 71 71 70 70 69 70 68 68 70 71 71 71 70 70 69 71 68 69
65 66 67 70 71 71 71 72 72 72 73 73 71 70 70 69 69 70 71 71 69 70 70 70 70 70 70 69 70 69 70 67 69 70 71 72 72 70 70 70 70 70 70
63 64 64 68 70 68 71 72 72 72 72 70 69 69 70 70 69 70 71 70 70 70 69 71 70 69 67 69 70 69 66 66 69 70 72 72 71 70 70 71 71 69 70
59 63 65 67 68 68 71 71 71 70 71 69 68 69 70 69 66 67 69 70 69 70 68 68 69 70 70 68 68 68 65 68 69 71 72 72 70 71 70 70 70 70 70
59 63 63 67 68 69 70 69 69 69 70 68 68 68 69 70 67 68 70 69 69 70 70 68 69 68 67 67 66 64 64 66 69 71 72 72 72 71 70 71 70 71 70
60 60 66 66 67 69 68 68 67 67 67 67 68 65 66 69 69 70 68 67 69 68 67 67 69 70 67 66 62 65 63 64 66 69 70 71 72 72 71 69 69 69 68
60 61 65 64 65 69 66 67 68 67 67 67 68 68 68 70 67 70 70 69 69 69 70 67 68 67 66 65 62 64 66 65 64 66 68 69 70 72 71 68 68 68 67
62 62 63 65 68 68 67 70 68 67 68 69 69 69 71 71 69 69 66 69 68 69 66 62 66 64 66 65 65 65 66 67 67 66 67 68 68 68 69 69 69 69 68
61 63 62 63 66 65 67 68 66 66 68 67 68 69 69 71 69 66 65 68 71 67 66 65 65 65 63 63 62 62 64 66 66 66 68 68 68 68 69 70 70 70 69
61 61 63 65 66 66 68 67 66 65 68 71 69 69 72 70 70 69 68 65 68 66 65 68 63 63 63 61 61 62 63 64 65 65 67 69 69 68 68 69 71 71 71
62 61 64 66 66 68 67 66 68 66 67 70 70 71 71 70 72 69 70 70 68 63 66 69 66 65 61 62 61 62 61 62 62 63 63 65 67 68 68 68 69 69 69
62 61 64 66 67 68 68 68 68 68 67 68 70 69 72 70 71 70 68 70 69 65 67 66 63 61 66 61 60 62 57 55 58 59 62 62 62 67 68 68 69 68 68
62 63 65 68 68 69 67 68 71 69 67 66 69 69 72 72 71 72 70 70 67 70 69 67 66 67 65 64 61 59 58 56 61 61 59 60 59 65 65 65 69 68 68
61 63 67 69 68 69 68 67 67 66 65 66 69 70 71 72 71 70 71 71 70 68 69 68 69 67 65 62 64 60 62 60 56 56 60 61 59 61 61 63 63 62 65
62 62 67 69 68 67 69 67 66 67 68 67 68 69 71 72 71 71 71 72 70 69 69 69 68 68 69 69 66 63 60 59 61 58 57 60 62 61 62 63 62 63 62
62 62 65 70 68 67 68 70 66 67 66 67 67 69 70 72 71 73 70 71 70 70 70 70 71 69 68 70 69 68 61 59 59 59 60 60 57 59 62 62 62 64 63

GFSSE_sfc_30mbdewp_069.txt.gz
Dewpoint
67 70 72 71 72 73 72 72 72 70 71 73 71 72 71 70 70 70 72 73 72 73 72 73 72 71 71 72 72 72 72 71 71 72 71 71 71 71 71 71 69 69 70
67 71 72 72 72 73 73 72 72 71 72 73 72 73 70 70 71 73 71 71 72 72 72 72 72 72 72 71 71 72 72 72 71 71 71 70 71 69 69 70 68 67 70
69 72 73 73 72 73 73 73 72 71 73 72 72 72 71 72 71 71 70 70 71 72 71 71 72 72 72 72 72 72 72 72 72 71 71 71 69 70 70 70 69 67 65
71 73 73 74 73 73 73 73 72 72 73 72 72 72 72 72 71 71 71 71 70 71 71 71 71 72 72 71 71 71 72 71 70 71 69 69 68 68 70 70 69 71 70
72 73 73 73 73 73 73 72 72 72 73 72 73 71 72 71 71 71 71 71 71 71 71 71 71 71 71 71 70 71 71 71 71 70 70 70 69 70 70 70 67 68 70
72 72 73 73 72 73 73 73 72 72 72 72 72 71 71 71 70 71 70 70 71 70 71 70 71 71 71 70 70 70 71 71 71 70 71 72 71 69 69 70 66 66 68
72 73 73 73 72 73 73 73 72 72 72 72 71 71 71 71 71 71 70 69 69 70 69 70 71 71 70 70 70 71 72 71 70 71 71 71 70 70 70 70 67 66 66
72 73 74 73 72 72 72 73 72 72 72 72 72 72 72 70 71 70 70 70 70 69 69 70 70 71 71 70 71 71 71 70 70 70 70 71 69 70 71 67 70 69 70
73 73 73 73 73 72 73 73 72 72 72 72 71 72 72 71 70 71 70 70 69 69 69 69 70 70 70 70 70 71 71 71 70 70 71 70 71 71 68 69 70 68 68
73 73 73 73 73 73 73 72 72 73 73 72 72 71 71 70 70 71 71 70 69 69 69 70 70 70 69 70 70 71 70 70 70 70 70 70 70 69 70 71 70 70 68
72 72 72 72 73 73 73 72 72 72 72 71 71 72 72 70 71 71 71 70 70 70 69 69 69 69 70 69 69 72 71 70 70 70 71 72 71 70 70 70 70 69 70
70 72 72 72 72 72 73 73 73 72 72 72 71 70 70 70 70 71 71 70 70 70 70 70 69 70 69 69 70 71 68 69 70 70 71 72 71 69 70 68 69 70 70
70 71 71 71 72 72 72 73 72 72 72 72 71 70 70 70 71 71 71 70 70 71 70 69 70 69 68 69 68 69 68 69 70 70 72 72 71 70 70 70 70 69 70
68 69 71 71 71 71 72 72 72 71 71 70 69 69 70 69 70 70 70 69 69 69 68 69 68 69 69 68 67 67 68 69 70 71 72 71 71 69 70 70 69 70 70
67 68 70 71 70 71 72 71 71 71 71 70 68 70 69 68 68 69 69 70 68 69 68 66 66 67 67 67 67 67 67 68 70 71 72 71 72 70 70 70 70 70 70
65 67 69 70 69 70 71 70 70 70 71 69 69 70 69 67 68 69 69 68 68 68 69 67 66 66 68 68 66 67 68 68 70 71 71 71 71 71 71 71 70 70 69
65 65 68 68 68 69 70 70 70 69 70 68 68 68 69 68 68 68 68 67 67 68 69 68 67 68 68 66 66 66 67 67 69 70 70 71 72 72 71 70 69 69 69
64 65 67 68 68 69 69 69 69 68 69 68 68 66 69 69 69 69 67 67 68 69 68 68 66 67 66 64 64 64 64 66 67 68 69 69 70 71 72 71 70 69 68
64 65 66 67 68 68 68 68 67 67 68 67 68 68 70 69 69 69 68 68 69 69 68 65 66 65 64 64 65 65 65 64 64 65 66 67 67 68 68 70 71 70 69
64 65 65 67 67 67 69 67 67 68 68 68 68 68 71 69 69 67 67 68 69 67 65 65 64 64 64 64 63 64 65 66 67 65 65 66 66 66 67 67 67 70 70
64 64 65 66 66 67 67 65 66 66 67 68 68 69 71 70 68 67 67 68 67 66 66 66 63 63 63 63 62 62 62 63 65 66 66 67 67 68 68 68 67 68 69
63 64 65 66 65 67 67 67 66 67 68 68 68 69 71 70 70 69 69 70 65 65 66 64 62 64 63 63 60 60 56 55 58 63 64 65 66 68 68 68 68 68 68
62 63 65 65 65 67 66 68 68 67 68 69 68 69 71 70 71 69 69 69 68 66 65 63 64 63 60 62 61 60 57 54 59 59 60 61 63 64 67 68 68 68 67
61 63 65 65 65 67 66 66 66 65 65 67 68 69 70 71 71 70 70 69 68 67 67 67 68 65 62 59 63 61 62 59 55 53 57 60 61 61 63 65 66 67 68
60 62 63 65 65 66 67 66 66 65 65 65 68 68 69 71 71 71 70 69 68 68 68 68 68 67 67 64 63 64 61 60 61 57 54 57 61 61 62 63 63 64 65
60 62 64 65 64 66 67 66 66 66 66 65 65 67 68 70 71 70 71 70 69 68 68 68 68 68 68 68 67 66 62 58 57 60 58 58 59 59 60 62 62 62 63

GFSSE_sfc_30mbdewp_075.txt.gz
Dewpoint
67 70 72 72 72 71 71 72 72 71 71 71 71 71 71 72 73 72 72 73 72 73 73 72 71 72 71 72 72 71 72 71 71 71 71 70 69 69 70 66 67 68 70
67 70 72 73 72 72 71 71 73 72 72 72 70 70 70 70 71 73 72 72 72 72 72 71 71 69 71 72 72 72 72 71 71 71 68 69 70 67 70 70 68 70 69
68 69 71 73 72 72 71 71 73 72 73 72 71 70 71 73 71 71 72 72 72 72 72 72 72 72 72 72 72 72 72 71 71 70 70 67 69 68 66 65 65 65 65
67 68 70 73 74 72 72 71 73 72 73 72 72 72 71 70 71 70 71 72 71 71 71 72 71 72 72 71 72 71 71 71 70 69 64 68 66 70 70 70 70 69 70
68 69 71 73 73 73 73 72 73 72 72 72 71 71 71 72 71 71 71 71 71 71 72 72 72 71 71 71 72 71 71 71 70 66 66 68 68 67 69 70 68 70 66
68 69 72 73 73 73 73 72 73 72 72 72 72 71 71 71 71 71 71 71 71 71 72 72 71 71 70 71 72 71 71 71 69 70 69 70 68 66 66 69 70 68 68
68 69 71 73 73 73 72 72 73 72 72 72 72 71 71 71 70 70 71 71 71 70 71 71 71 71 71 72 72 71 71 71 69 68 69 68 69 67 66 66 67 70 70
68 69 70 73 73 73 73 72 72 72 72 72 71 71 71 71 70 69 69 69 69 70 70 70 70 70 71 72 72 71 71 70 68 67 68 69 70 69 70 70 71 70 69
69 69 70 71 73 73 73 72 72 72 72 72 72 72 71 71 70 70 70 67 69 70 71 71 71 71 72 72 72 71 71 70 68 67 67 68 69 69 70 68 67 68 68
68 69 68 69 71 70 71 72 72 72 72 72 71 71 71 70 69 70 70 69 69 70 71 71 71 72 71 72 71 70 71 69 67 65 65 66 71 71 70 71 68 69 69
68 69 70 70 71 72 71 72 72 72 72 71 71 73 72 70 69 68 70 69 69 70 71 70 70 71 71 71 71 71 68 65 64 66 67 70 70 70 70 70 69 70 68
68 69 69 70 71 71 70 71 72 70 71 72 71 71 70 70 69 68 70 69 69 70 70 70 71 71 68 68 71 71 66 66 66 66 66 71 70 71 68 69 71 69 70
68 68 69 71 71 70 71 70 69 70 70 71 71 71 71 70 70 69 69 68 69 70 68 68 68 67 68 68 67 68 68 66 65 66 69 71 70 70 70 71 69 70 70
67 69 70 70 71 71 71 68 70 70 70 69 70 71 70 69 70 71 69 70 69 68 69 69 67 69 69 68 68 68 68 65 64 66 69 71 71 70 70 70 69 69 69
66 68 69 71 71 72 72 70 70 69 68 69 70 71 70 69 69 69 69 69 69 69 68 67 68 68 69 68 68 68 68 66 65 65 66 71 71 70 70 70 69 70 70
66 68 68 69 71 72 70 71 70 70 69 69 70 70 71 69 69 68 69 69 69 69 68 68 69 68 68 67 68 68 67 65 66 66 65 67 71 72 71 71 70 70 70
66 68 68 69 70 71 71 70 69 69 69 69 69 71 71 70 70 71 69 69 69 70 70 70 69 69 66 67 68 67 67 67 65 66 66 66 67 71 71 71 70 70 70
65 67 68 68 69 70 70 69 69 69 70 70 70 70 71 71 70 71 69 68 69 69 69 68 67 67 66 65 66 66 66 65 65 66 66 66 66 66 69 72 72 71 70
64 66 67 68 68 69 70 68 69 70 70 70 70 69 71 71 71 71 70 68 70 69 68 66 68 67 65 65 64 65 65 65 65 63 65 66 66 67 66 66 69 70 70
63 66 67 68 68 69 69 69 69 69 70 70 70 69 70 70 71 71 69 70 70 68 68 66 68 67 66 65 63 64 66 66 66 66 66 65 66 67 67 68 68 66 68
62 65 67 68 69 69 68 67 68 67 68 69 70 70 70 72 70 71 70 70 70 69 68 68 67 67 65 67 64 62 63 65 65 65 65 65 65 66 67 68 69 68 67
62 64 67 68 69 69 67 68 68 68 68 68 70 70 71 72 72 70 69 69 69 68 69 69 67 65 65 65 62 62 57 57 59 60 62 64 65 65 65 66 68 69 69
62 64 66 68 69 69 68 69 69 70 70 68 68 69 69 72 72 72 70 71 70 69 67 68 67 67 63 65 66 62 58 55 59 60 62 62 64 63 64 65 66 67 69
62 64 66 67 68 69 70 68 68 66 65 66 68 69 69 71 72 72 71 71 71 68 68 67 68 67 66 62 64 64 65 64 57 56 60 60 63 61 63 63 62 64 67
62 64 65 67 68 69 70 69 68 67 66 67 68 69 69 72 72 72 72 72 71 70 70 70 70 69 66 63 62 65 65 63 63 60 57 59 61 62 63 63 63 63 65
61 63 65 66 68 69 69 69 69 67 67 66 67 68 68 69 71 72 72 72 71 70 70 70 71 71 70 69 67 67 65 61 60 61 60 62 61 61 63 63 64 64 64